Date String (YYYY-MM-DD hh:mm:ss) UTC,Instrument flags,Ambient pressure (hPa),Sample flow (lpm),Bypass flow (lpm),Sample temperature (°C),Ambient temperature (°C),ASC tube jacket temperature (°C),LED temperature (°C),Box temperature (°C),Sample RH (%),Span deviation,Mass concentration (μg/m³),Mass concentration (μg/m³),Mass concentration (μg/m³)
DateTimeUTC,F1_M11,P_M11,Q1_M11,Q2_M11,T1_M11,T2_M11,T3_M11,T4_M11,T5_M11,U1_M11,ZSPAN_M11,X0_M11,X2_M11,X1_M11
2022-06-15 16:00:00,,0823.8,5.01,0.00,29.2,28.2,00.0,38.1,31.1,06.7,0000.0,0009.19,0003.53,0002.50
2022-06-15 16:01:00,,0823.9,4.99,0.00,29.2,28.2,00.0,38.1,31.1,06.5,0000.0,0009.09,0003.53,0002.51
2022-06-15 16:02:00,,0823.9,5.01,0.00,29.2,28.2,00.0,38.1,31.1,06.4,0000.0,0009.89,0003.63,0002.56
2022-06-15 16:03:00,,0823.9,5.00,0.00,29.2,28.2,00.0,38.1,31.1,06.5,0000.0,0010.32,0003.64,0002.58
2022-06-15 16:04:00,,0823.9,5.00,0.00,29.3,28.2,00.0,38.1,31.2,06.4,0000.0,0010.31,0003.64,0002.61
2022-06-15 16:05:00,,0823.8,5.00,0.00,29.3,28.3,00.0,38.1,31.2,06.5,0000.0,0009.69,0003.60,0002.62
2022-06-15 16:06:00,,0823.7,5.02,0.00,29.3,28.3,00.0,38.1,31.2,06.5,0000.0,0008.67,0003.54,0002.63
2022-06-15 16:07:00,,0823.8,5.00,0.00,29.3,28.3,00.0,38.1,31.2,06.5,0000.0,0008.86,0003.55,0002.64
2022-06-15 16:08:00,,0823.7,4.99,0.00,29.3,28.3,00.0,38.1,31.2,06.3,0000.0,0008.75,0003.56,0002.66
2022-06-15 16:09:00,,0823.7,5.00,0.00,29.3,28.3,00.0,38.1,31.2,06.3,0000.0,0008.70,0003.55,0002.66
2022-06-15 16:10:00,,0823.8,5.00,0.00,29.3,28.3,00.0,38.1,31.2,06.4,0000.0,0008.74,0003.53,0002.66
2022-06-15 16:11:00,,0823.8,5.00,0.00,29.3,28.3,00.0,38.1,31.2,06.4,0000.0,0008.78,0003.51,0002.66
2022-06-15 16:12:00,,0823.8,5.00,0.00,29.3,28.3,00.0,38.1,31.2,06.5,0000.0,0008.94,0003.51,0002.67
2022-06-15 16:13:00,,0823.7,4.99,0.00,29.3,28.3,00.0,38.2,31.2,06.5,0000.0,0008.59,0003.46,0002.65
2022-06-15 16:14:00,,0823.6,5.00,0.00,29.3,28.3,00.0,38.2,31.2,06.6,0000.0,0008.13,0003.45,0002.62
2022-06-15 16:15:00,,0823.7,5.02,0.00,29.3,28.3,00.0,38.2,31.2,06.5,0000.0,0008.39,0003.44,0002.59
2022-06-15 16:16:00,,0823.7,4.99,0.00,29.4,28.3,00.0,38.2,31.2,06.2,0000.0,0008.81,0003.45,0002.60
2022-06-15 16:17:00,,0823.7,5.00,0.00,29.4,28.4,00.0,38.2,31.2,06.4,0000.0,0009.41,0003.48,0002.61
2022-06-15 16:18:00,,0823.7,5.00,0.00,29.4,28.4,00.0,38.2,31.3,06.4,0000.0,0009.49,0003.48,0002.61
2022-06-15 16:19:00,,0823.7,4.99,0.00,29.4,28.4,00.0,38.2,31.3,06.4,0000.0,0010.08,0003.45,0002.58
2022-06-15 16:20:00,,0823.7,5.01,0.00,29.4,28.4,00.0,38.2,31.3,06.2,0000.0,0010.03,0003.44,0002.57
2022-06-15 16:21:00,,0823.7,5.00,0.00,29.4,28.4,00.0,38.2,31.3,06.1,0000.0,0010.28,0003.49,0002.56
2022-06-15 16:22:00,,0823.7,5.00,0.00,29.4,28.4,00.0,38.2,31.3,06.1,0000.0,0010.56,0003.53,0002.56
2022-06-15 16:23:00,,0823.6,4.99,0.00,29.4,28.4,00.0,38.2,31.3,05.9,0000.0,0010.64,0003.53,0002.53
2022-06-15 16:24:00,,0823.8,5.01,0.00,29.4,28.4,00.0,38.2,31.3,05.9,0000.0,0010.37,0003.50,0002.51
2022-06-15 16:25:00,,0823.8,5.00,0.00,29.4,28.4,00.0,38.2,31.3,05.9,0000.0,0010.68,0003.51,0002.49
2022-06-15 16:26:00,,0823.8,5.00,0.00,29.4,28.4,00.0,38.3,31.3,06.1,0000.0,0010.70,0003.53,0002.49
2022-06-15 16:27:00,,0823.9,4.99,0.00,29.4,28.4,00.0,38.3,31.4,06.2,0000.0,0010.73,0003.54,0002.49
2022-06-15 16:28:00,,0823.9,4.99,0.00,29.5,28.4,00.0,38.3,31.4,06.2,0000.0,0010.30,0003.52,0002.47
2022-06-15 16:29:00,,0823.9,4.99,0.00,29.5,28.5,00.0,38.3,31.4,06.1,0000.0,0009.73,0003.48,0002.46
2022-06-15 16:30:00,,0823.9,5.00,0.00,29.5,28.5,00.0,38.3,31.4,06.2,0000.0,0009.03,0003.44,0002.44
2022-06-15 16:31:00,,0823.8,5.01,0.00,29.5,28.5,00.0,38.3,31.4,06.2,0000.0,0008.72,0003.45,0002.43
2022-06-15 16:32:00,,0823.8,5.00,0.00,29.5,28.5,00.0,38.3,31.4,06.2,0000.0,0008.62,0003.46,0002.42
2022-06-15 16:33:00,,0823.9,5.00,0.00,29.5,28.5,00.0,38.3,31.4,06.1,0000.0,0008.20,0003.40,0002.39
2022-06-15 16:34:00,,0823.9,5.00,0.00,29.5,28.5,00.0,38.3,31.4,06.1,0000.0,0008.00,0003.37,0002.37
2022-06-15 16:35:00,,0823.8,4.99,0.00,29.5,28.5,00.0,38.3,31.4,06.2,0000.0,0007.75,0003.33,0002.36
2022-06-15 16:36:00,,0823.8,4.99,0.00,29.5,28.5,00.0,38.4,31.4,06.0,0000.0,0007.37,0003.32,0002.35
2022-06-15 16:37:00,,0823.8,4.99,0.00,29.5,28.6,00.0,38.4,31.4,06.1,0000.0,0007.04,0003.28,0002.34
2022-06-15 16:38:00,,0823.8,5.00,0.00,29.6,28.6,00.0,38.4,31.5,06.2,0000.0,0006.46,0003.24,0002.31
2022-06-15 16:39:00,,0823.9,4.98,0.00,29.6,28.6,00.0,38.4,31.5,06.0,0000.0,0006.32,0003.21,0002.26
2022-06-15 16:40:00,,0823.9,5.00,0.00,29.6,28.6,00.0,38.4,31.5,06.1,0000.0,0006.59,0003.20,0002.23
2022-06-15 16:41:00,,0823.8,4.99,0.00,29.6,28.6,00.0,38.4,31.5,06.2,0000.0,0006.76,0003.21,0002.21
2022-06-15 16:42:00,,0823.8,5.01,0.00,29.6,28.6,00.0,38.4,31.5,06.2,0000.0,0006.57,0003.16,0002.18
2022-06-15 16:43:00,,0823.8,5.00,0.00,29.6,28.7,00.0,38.4,31.5,06.0,0000.0,0006.20,0003.06,0002.16
2022-06-15 16:44:00,,0823.8,5.00,0.00,29.6,28.7,00.0,38.4,31.5,05.9,0000.0,0006.05,0003.03,0002.15
2022-06-15 16:45:00,,0823.8,5.00,0.00,29.6,28.7,00.0,38.4,31.5,05.9,0000.0,0005.93,0003.02,0002.15
2022-06-15 16:46:00,,0823.8,4.99,0.00,29.7,28.7,00.0,38.5,31.6,06.0,0000.0,0006.02,0003.03,0002.13
2022-06-15 16:47:00,,0823.9,5.00,0.00,29.7,28.7,00.0,38.5,31.6,05.9,0000.0,0006.20,0002.98,0002.11
2022-06-15 16:48:00,,0823.9,5.00,0.00,29.7,28.7,00.0,38.5,31.6,06.0,0000.0,0006.22,0002.92,0002.10
2022-06-15 16:49:00,,0823.9,5.00,0.00,29.7,28.7,00.0,38.5,31.6,06.1,0000.0,0006.53,0002.88,0002.08
2022-06-15 16:50:00,,0823.9,5.01,0.00,29.7,28.8,00.0,38.5,31.6,06.2,0000.0,0006.28,0002.82,0002.08
2022-06-15 16:51:00,,0823.8,5.00,0.00,29.7,28.8,00.0,38.5,31.6,06.0,0000.0,0005.97,0002.78,0002.08
2022-06-15 16:52:00,,0823.8,5.00,0.00,29.7,28.8,00.0,38.5,31.6,05.8,0000.0,0005.80,0002.78,0002.08
2022-06-15 16:53:00,,0823.8,4.99,0.00,29.7,28.8,00.0,38.5,31.7,05.6,0000.0,0005.73,0002.75,0002.05
2022-06-15 16:54:00,,0823.8,5.01,0.00,29.8,28.8,00.0,38.5,31.7,05.5,0000.0,0005.68,0002.72,0002.03
2022-06-15 16:55:00,,0823.9,5.00,0.00,29.8,28.8,00.0,38.6,31.7,05.5,0000.0,0005.83,0002.69,0002.01
2022-06-15 16:56:00,,0823.9,5.00,0.00,29.8,28.8,00.0,38.6,31.7,05.5,0000.0,0006.06,0002.65,0001.98
2022-06-15 16:57:00,,0823.9,5.00,0.00,29.8,28.8,00.0,38.6,31.7,05.7,0000.0,0006.30,0002.60,0001.98
2022-06-15 16:58:00,,0823.8,4.99,0.00,29.8,28.8,00.0,38.6,31.7,05.6,0000.0,0006.47,0002.60,0001.97
2022-06-15 16:59:00,,0823.8,5.02,0.00,29.8,28.8,00.0,38.6,31.7,05.4,0000.0,0006.54,0002.62,0001.96
